TimePDT,TemperatureF,Dew PointF,Humidity,Sea Level PressureIn,VisibilityMPH,Wind Direction,Wind SpeedMPH,Gust SpeedMPH,PrecipitationIn,Events,Conditions,WindDirDegrees,DateUTC
12:52 AM,80.1,71.1,74,29.78,10.0,Calm,Calm,-,N/A,,Clear,0,2013-09-08 07:52:00
1:52 AM,80.1,72.0,76,29.78,10.0,Calm,Calm,-,N/A,,Clear,0,2013-09-08 08:52:00
2:52 AM,81.0,72.0,74,29.78,10.0,Calm,Calm,-,N/A,,Clear,0,2013-09-08 09:52:00
3:52 AM,80.1,71.1,74,29.76,10.0,Calm,Calm,-,N/A,,Clear,0,2013-09-08 10:52:00
4:52 AM,79.0,72.0,79,29.76,10.0,Calm,Calm,-,N/A,,Clear,0,2013-09-08 11:52:00
5:52 AM,77.0,71.1,82,29.76,10.0,Calm,Calm,-,N/A,,Clear,0,2013-09-08 12:52:00
6:52 AM,77.0,71.1,82,29.78,10.0,Calm,Calm,-,N/A,,Clear,0,2013-09-08 13:52:00
7:52 AM,82.0,72.0,71,29.78,10.0,Calm,Calm,-,N/A,,Clear,0,2013-09-08 14:52:00
8:52 AM,87.1,70.0,57,29.77,10.0,NNW,4.6,-,N/A,,Clear,330,2013-09-08 15:52:00
9:52 AM,91.0,69.1,48,29.79,10.0,Variable,3.5,-,N/A,,Clear,0,2013-09-08 16:52:00
10:52 AM,93.9,66.0,40,29.77,10.0,Calm,Calm,-,N/A,,Clear,0,2013-09-08 17:52:00
11:52 AM,97.0,64.9,35,29.75,10.0,Variable,3.5,-,N/A,,Clear,0,2013-09-08 18:52:00
12:52 PM,99.0,66.0,34,29.73,10.0,South,3.5,-,N/A,,Clear,190,2013-09-08 19:52:00
1:52 PM,100.9,63.0,29,29.70,10.0,SE,8.1,-,N/A,,Clear,140,2013-09-08 20:52:00
2:52 PM,100.9,63.0,29,29.67,10.0,ESE,9.2,-,N/A,,Clear,120,2013-09-08 21:52:00
3:44 PM,100.4,62.6,29,29.65,10.0,Variable,4.6,-,N/A,Thunderstorm,Clear,0,2013-09-08 22:44:00
3:52 PM,99.0,62.1,30,29.66,10.0,South,4.6,-,N/A,Thunderstorm,Clear,170,2013-09-08 22:52:00
3:59 PM,98.6,62.6,30,29.65,10.0,South,3.5,-,N/A,,Clear,190,2013-09-08 22:59:00
4:52 PM,97.0,63.0,32,29.65,10.0,Calm,Calm,-,N/A,,Clear,0,2013-09-08 23:52:00
5:52 PM,96.1,66.9,38,29.65,10.0,East,4.6,-,N/A,,Clear,90,2013-09-09 00:52:00
6:52 PM,91.9,70.0,48,29.64,10.0,Calm,Calm,-,N/A,,Clear,0,2013-09-09 01:52:00
7:52 PM,90.0,69.1,50,29.64,10.0,Calm,Calm,-,N/A,,Clear,0,2013-09-09 02:52:00
8:52 PM,90.0,69.1,50,29.66,10.0,Calm,Calm,-,N/A,,Clear,0,2013-09-09 03:52:00
9:52 PM,86.0,70.0,59,29.67,10.0,West,5.8,-,N/A,,Clear,260,2013-09-09 04:52:00
10:52 PM,88.0,69.1,53,29.68,10.0,North,4.6,-,N/A,,Clear,10,2013-09-09 05:52:00
11:52 PM,87.1,68.0,53,29.68,10.0,Calm,Calm,-,N/A,,Clear,0,2013-09-09 06:52:00